CHALLENGER (42721 NORAD) Tracking and Keplerian Element Data

This shows tracking and keplerian element data for the satellite.

Feedback or suggestion? Click here.




ElementValue
Catalog42721
NameCHALLENGER
Epoch Orbit6984
Epoch Day224.5998025
Epoch Year2018
RAAN42.1184
Inclination51.6121
Eccentricity0.0010981
Argument of Perigee284.9336
Mean Anonmoly75.0476
Mean Motion16.43490172
Decay Rate0.12090849
L11 42721U 98067MA 18224.59980250 .12090849 12543-4 42456-3 0 9997
L22 42721 51.6121 42.1184 0010981 284.9336 75.0476 16.43490172 69841



Live tracking and technical data element details for CHALLENGER (NORAD 42721). CHALLENGER can be tracked NOW for your location showing map with azimuth and elevation plus other details from your city location.







IsCatalogInMostPopularTable: catalog: 42721, numindb: 1078
Update: records affected: 1



GetName: 42721 CHALLENGER

Hit Count: updated at: Tue, 17 Sep 2024 13:10:38 GMT